VJC246 VVTS-VVNB

Flight info

Callsign VJC246
Flight time N/A
Altitude 35000
Route PATMA5G PATMA Q2 BIVIM BISON3H
Aircraft A321/M-SDE3FGHIRWY/LB1

Departure

Time N/A
Airport Tan Son Nhat International Airport (VVTS)

Arrival

Time 2026-05-08 15:35
Airport Noi Bai International Airport (VVNB)
Time Latitude Longitude Altitude Speed Heading
2026-05-08 14:11 13.78700 107.83913 34941 ft 451 kts
2026-05-08 14:12 13.84986 107.84046 34945 ft 451 kts
2026-05-08 14:12 13.91271 107.84176 34950 ft 451 kts
2026-05-08 14:13 13.97537 107.84302 34955 ft 452 kts
2026-05-08 14:13 14.03828 107.84401 34958 ft 452 kts
2026-05-08 14:14 14.10085 107.84394 34962 ft 452 kts
2026-05-08 14:14 14.16403 107.84363 34965 ft 452 kts
2026-05-08 14:15 14.22665 107.84354 34964 ft 452 kts
2026-05-08 14:15 14.28971 107.84356 34969 ft 452 kts
2026-05-08 14:16 14.35275 107.84362 34971 ft 453 kts
2026-05-08 14:16 14.41583 107.84365 34974 ft 453 kts
2026-05-08 14:17 14.47860 107.84362 34981 ft 453 kts
2026-05-08 14:17 14.54193 107.84361 34981 ft 453 kts
2026-05-08 14:18 14.59810 107.84362 34991 ft 453 kts
2026-05-08 14:18 14.66135 107.84362 34995 ft 453 kts
2026-05-08 14:19 14.72420 107.84357 35007 ft 453 kts
2026-05-08 14:19 14.78743 107.84353 35017 ft 453 kts
2026-05-08 14:20 14.85028 107.84356 35028 ft 453 kts
2026-05-08 14:20 14.91352 107.84405 35037 ft 453 kts
2026-05-08 14:21 14.97629 107.84656 35041 ft 453 kts
2026-05-08 14:21 15.03939 107.84961 35050 ft 452 kts
2026-05-08 14:22 15.10217 107.85220 35052 ft 453 kts
2026-05-08 14:22 15.16494 107.85452 35042 ft 453 kts
2026-05-08 14:23 15.22812 107.85688 35037 ft 454 kts
2026-05-08 14:23 15.29099 107.85923 35025 ft 454 kts
2026-05-08 14:24 15.34407 107.86125 35022 ft 455 kts
2026-05-08 14:24 15.40699 107.86362 35017 ft 455 kts
2026-05-08 14:25 15.47027 107.86605 35007 ft 455 kts
2026-05-08 14:25 15.53381 107.86847 35006 ft 456 kts
2026-05-08 14:26 15.59704 107.87084 35002 ft 456 kts
2026-05-08 14:26 15.66038 107.87326 34998 ft 456 kts
2026-05-08 14:27 15.72406 107.87577 34995 ft 457 kts
2026-05-08 14:27 15.78734 107.87822 34994 ft 457 kts
2026-05-08 14:28 15.85105 107.88059 34992 ft 457 kts
2026-05-08 14:28 15.91475 107.88296 34988 ft 457 kts
2026-05-08 14:29 15.97740 107.87577 34983 ft 457 kts 343°
2026-05-08 14:29 16.03611 107.85004 34981 ft 457 kts 335°
2026-05-08 14:30 16.09297 107.82211 34976 ft 458 kts 335°
2026-05-08 14:30 16.15090 107.79371 34971 ft 458 kts 335°
2026-05-08 14:31 16.20429 107.76746 34969 ft 459 kts 335°
2026-05-08 14:31 16.26224 107.73891 34968 ft 460 kts 335°
2026-05-08 14:32 16.34882 107.69619 34969 ft 460 kts 335°
2026-05-08 14:32 16.40679 107.66766 34970 ft 460 kts 335°
2026-05-08 14:33 16.46483 107.63900 34972 ft 460 kts 335°
2026-05-08 14:33 16.52240 107.61059 34970 ft 461 kts 335°
2026-05-08 14:34 16.58049 107.58203 34968 ft 461 kts 335°
2026-05-08 14:34 16.63831 107.55365 34964 ft 461 kts 335°
2026-05-08 14:35 16.69642 107.52513 34962 ft 461 kts 335°
2026-05-08 14:35 16.75451 107.49654 34962 ft 461 kts 335°
2026-05-08 14:36 16.81251 107.46801 34961 ft 461 kts 335°
2026-05-08 14:36 16.87026 107.43960 34965 ft 461 kts 334°
2026-05-08 14:37 16.92832 107.41100 34965 ft 460 kts 334°
2026-05-08 14:37 16.98632 107.38248 34965 ft 460 kts 334°
2026-05-08 14:38 17.04400 107.35404 34970 ft 461 kts 334°
2026-05-08 14:38 17.10191 107.32492 34967 ft 461 kts 334°
2026-05-08 14:39 17.15934 107.29581 34965 ft 461 kts 334°
2026-05-08 14:39 17.21726 107.26653 34966 ft 461 kts 334°
2026-05-08 14:40 17.27490 107.23750 34965 ft 462 kts 334°
2026-05-08 14:40 17.33287 107.20826 34972 ft 462 kts 334°
2026-05-08 14:41 17.39082 107.17905 34969 ft 462 kts 334°
2026-05-08 14:41 17.44839 107.14991 34974 ft 462 kts 334°
2026-05-08 14:42 17.50642 107.12050 34979 ft 461 kts 334°
2026-05-08 14:42 17.56403 107.09143 34983 ft 461 kts 334°
2026-05-08 14:43 17.62196 107.06217 34983 ft 461 kts 334°
2026-05-08 14:43 17.67978 107.03286 34985 ft 461 kts 333°
2026-05-08 14:44 17.73716 107.00367 34988 ft 460 kts 333°
2026-05-08 14:44 17.79459 106.97444 34992 ft 460 kts 333°
2026-05-08 14:45 17.85218 106.94522 34994 ft 459 kts 333°
2026-05-08 14:45 17.90995 106.91594 35000 ft 459 kts 333°
2026-05-08 14:46 17.96728 106.88705 35002 ft 459 kts 333°
2026-05-08 14:46 18.02485 106.85813 35000 ft 458 kts 333°
2026-05-08 14:47 18.08263 106.82905 35002 ft 458 kts 333°
2026-05-08 14:47 18.13976 106.80021 35002 ft 458 kts 333°
2026-05-08 14:48 18.19733 106.77108 35003 ft 458 kts 333°
2026-05-08 14:48 18.25478 106.74203 35009 ft 458 kts 333°
2026-05-08 14:49 18.31187 106.71310 35006 ft 457 kts 333°
2026-05-08 14:49 18.36927 106.68401 35010 ft 457 kts 333°
2026-05-08 14:50 18.42661 106.65499 35011 ft 457 kts 333°
2026-05-08 14:50 18.48347 106.62619 35010 ft 456 kts 333°
2026-05-08 14:51 18.54085 106.59715 35008 ft 456 kts 333°
2026-05-08 14:51 18.59794 106.56828 35006 ft 456 kts 333°
2026-05-08 14:52 18.65863 106.53762 35002 ft 456 kts 333°
2026-05-08 14:53 18.71692 106.50847 35005 ft 456 kts 333°
2026-05-08 14:53 18.77423 106.47941 35007 ft 456 kts 333°
2026-05-08 14:54 18.83154 106.45022 35003 ft 456 kts 333°
2026-05-08 14:54 18.88858 106.42140 35002 ft 457 kts 333°
2026-05-08 14:55 18.94597 106.39242 35002 ft 457 kts 333°
2026-05-08 14:55 19.00349 106.36356 35007 ft 457 kts 333°
2026-05-08 14:56 19.06070 106.33489 35008 ft 457 kts 333°
2026-05-08 14:56 19.11806 106.30593 35008 ft 457 kts 333°
2026-05-08 14:57 19.17562 106.27675 35011 ft 457 kts 333°
2026-05-08 14:57 19.23292 106.24774 35012 ft 457 kts 333°
2026-05-08 14:58 19.29021 106.21882 35013 ft 457 kts 333°
2026-05-08 14:58 19.34777 106.18978 35014 ft 457 kts 333°
2026-05-08 14:59 19.40491 106.16089 35015 ft 456 kts 333°
2026-05-08 14:59 19.49082 106.11719 35022 ft 455 kts 332°
2026-05-08 15:00 19.54801 106.08817 35024 ft 455 kts 333°
2026-05-08 15:00 19.60500 106.05969 35021 ft 454 kts 333°
2026-05-08 15:01 19.66231 106.03103 35016 ft 453 kts 333°
2026-05-08 15:01 19.71908 106.00245 35016 ft 453 kts 331°
2026-05-08 15:02 19.74522 105.98409 35016 ft 448 kts 316°
2026-05-08 15:02 19.76560 105.95926 35013 ft 444 kts 301°
2026-05-08 15:02 19.77887 105.93025 35001 ft 442 kts 287°
2026-05-08 15:02 19.78468 105.89831 34996 ft 441 kts 272°
2026-05-08 15:03 19.78259 105.86587 34989 ft 442 kts 258°
2026-05-08 15:03 19.77465 105.83425 34985 ft 443 kts 255°
2026-05-08 15:03 19.75777 105.77148 34986 ft 445 kts 255°
2026-05-08 15:04 19.74590 105.70708 34987 ft 444 kts 269°
2026-05-08 15:04 19.74942 105.64162 34993 ft 444 kts 275°
2026-05-08 15:05 19.75414 105.57639 34790 ft 444 kts 274°
2026-05-08 15:05 19.75640 105.54376 34562 ft 442 kts 274°
2026-05-08 15:05 19.75863 105.51119 34132 ft 442 kts 274°
2026-05-08 15:06 19.76121 105.47832 33367 ft 445 kts 278°
2026-05-08 15:06 19.76807 105.44719 33222 ft 432 kts 289°
2026-05-08 15:06 19.77968 105.41822 33067 ft 421 kts 295°
2026-05-08 15:06 19.79233 105.39039 32681 ft 416 kts 295°
2026-05-08 15:07 19.80491 105.36265 32221 ft 413 kts 295°
2026-05-08 15:07 19.81737 105.33525 31521 ft 409 kts 295°
2026-05-08 15:07 19.82984 105.30785 30686 ft 411 kts 295°
2026-05-08 15:07 19.84331 105.28150 30466 ft 403 kts 306°
2026-05-08 15:08 19.86290 105.26070 29947 ft 397 kts 326°
2026-05-08 15:08 19.87897 105.25152 29471 ft 396 kts 339°
2026-05-08 15:08 19.91474 105.24594 28523 ft 393 kts
2026-05-08 15:08 19.94106 105.25300 27827 ft 392 kts 25°
2026-05-08 15:09 19.96415 105.26824 27135 ft 389 kts 36°
2026-05-08 15:09 19.98593 105.28534 26465 ft 387 kts 36°
2026-05-08 15:09 20.00722 105.30225 25840 ft 384 kts 36°
2026-05-08 15:09 20.02850 105.31921 25258 ft 380 kts 36°
2026-05-08 15:10 20.04963 105.33607 24693 ft 377 kts 36°
2026-05-08 15:10 20.06351 105.34714 24317 ft 374 kts 36°
2026-05-08 15:10 20.09107 105.36908 23592 ft 369 kts 36°
2026-05-08 15:10 20.11161 105.38541 22946 ft 366 kts 36°
2026-05-08 15:11 20.12510 105.39614 22538 ft 363 kts 36°
2026-05-08 15:11 20.14526 105.41219 21920 ft 359 kts 37°
2026-05-08 15:11 20.16517 105.42800 21329 ft 356 kts 37°
2026-05-08 15:11 20.19143 105.44884 20691 ft 353 kts 37°
2026-05-08 15:12 20.20472 105.45938 20424 ft 351 kts 37°
2026-05-08 15:12 20.22400 105.47468 19962 ft 347 kts 37°
2026-05-08 15:12 20.24328 105.49003 19405 ft 344 kts 37°
2026-05-08 15:12 20.25556 105.49983 19057 ft 342 kts 37°
2026-05-08 15:13 20.27088 105.51202 18628 ft 339 kts 37°
2026-05-08 15:13 20.28976 105.52703 18072 ft 336 kts 37°
2026-05-08 15:13 20.30821 105.54171 17474 ft 334 kts 37°
2026-05-08 15:13 20.32676 105.55648 16884 ft 332 kts 37°
2026-05-08 15:14 20.34519 105.57119 16311 ft 329 kts 37°
2026-05-08 15:14 20.36354 105.58585 15757 ft 327 kts 37°
2026-05-08 15:14 20.38173 105.60038 15254 ft 327 kts 36°
2026-05-08 15:14 20.39965 105.61466 15027 ft 326 kts 36°
2026-05-08 15:15 20.41818 105.62863 14793 ft 325 kts 28°
2026-05-08 15:15 20.43889 105.63790 14557 ft 323 kts 13°
2026-05-08 15:15 20.46105 105.64129 14335 ft 320 kts 359°
2026-05-08 15:15 20.48333 105.64099 14115 ft 319 kts 358°
2026-05-08 15:16 20.50531 105.64071 13892 ft 319 kts 358°
2026-05-08 15:17 20.59692 105.63979 12992 ft 313 kts 358°
2026-05-08 15:17 20.61877 105.63956 13005 ft 313 kts 358°
2026-05-08 15:17 20.63795 105.63925 13007 ft 313 kts 355°
2026-05-08 15:17 20.65904 105.63418 13007 ft 311 kts 335°
2026-05-08 15:18 20.67714 105.62180 13009 ft 309 kts 315°
2026-05-08 15:18 20.68643 105.61040 13006 ft 307 kts 302°
2026-05-08 15:18 20.69539 105.58976 13006 ft 306 kts 284°
2026-05-08 15:18 20.70249 105.56049 13012 ft 307 kts 283°
2026-05-08 15:19 20.70605 105.54579 13009 ft 307 kts 284°
2026-05-08 15:19 20.71144 105.52367 13008 ft 307 kts 284°
2026-05-08 15:19 20.71687 105.50147 13010 ft 307 kts 284°
2026-05-08 15:19 20.72234 105.47940 13012 ft 308 kts 286°
2026-05-08 15:20 20.73076 105.45867 13010 ft 308 kts 300°
2026-05-08 15:20 20.74390 105.44048 13013 ft 310 kts 314°
2026-05-08 15:20 20.75919 105.42418 13014 ft 310 kts 314°
2026-05-08 15:20 20.77445 105.40776 13014 ft 310 kts 314°
2026-05-08 15:21 20.78965 105.39132 13013 ft 310 kts 314°
2026-05-08 15:21 20.80461 105.37508 13013 ft 310 kts 314°
2026-05-08 15:21 20.81980 105.35860 13013 ft 311 kts 314°
2026-05-08 15:21 20.83502 105.34208 13014 ft 311 kts 315°
2026-05-08 15:22 20.85204 105.32782 13017 ft 311 kts 329°
2026-05-08 15:22 20.86496 105.32099 13012 ft 312 kts 338°
2026-05-08 15:23 20.93410 105.29962 13012 ft 313 kts 343°
2026-05-08 15:23 20.95502 105.29413 13008 ft 314 kts 354°
2026-05-08 15:23 20.97664 105.29616 13014 ft 314 kts 17°
2026-05-08 15:23 21.00121 105.31231 12925 ft 317 kts 46°
2026-05-08 15:24 21.01015 105.32519 12421 ft 324 kts 65°
2026-05-08 15:24 21.01573 105.34800 12129 ft 317 kts 88°
2026-05-08 15:24 21.01629 105.37126 11646 ft 307 kts 89°
2026-05-08 15:24 21.01677 105.39399 10972 ft 302 kts 89°
2026-05-08 15:25 21.01730 105.41609 10310 ft 298 kts 89°
2026-05-08 15:25 21.01785 105.43813 9648 ft 294 kts 89°
2026-05-08 15:25 21.01841 105.45972 8927 ft 289 kts 89°
2026-05-08 15:25 21.01900 105.48114 8245 ft 285 kts 89°
2026-05-08 15:26 21.01956 105.50216 7570 ft 280 kts 89°
2026-05-08 15:26 21.02007 105.52288 6897 ft 277 kts 89°
2026-05-08 15:26 21.02057 105.54352 6524 ft 276 kts 89°
2026-05-08 15:26 21.02105 105.56372 6229 ft 272 kts 88°
2026-05-08 15:27 21.02151 105.58347 6139 ft 259 kts 88°
2026-05-08 15:27 21.02417 105.60189 6078 ft 245 kts 66°
2026-05-08 15:27 21.03392 105.61638 5912 ft 241 kts 39°
2026-05-08 15:27 21.04887 105.62399 5636 ft 240 kts 11°
2026-05-08 15:28 21.06554 105.62304 5318 ft 243 kts 346°
2026-05-08 15:28 21.08179 105.61784 4991 ft 243 kts 346°
2026-05-08 15:28 21.09801 105.61266 4700 ft 242 kts 346°
2026-05-08 15:28 21.11392 105.60759 4413 ft 241 kts 346°
2026-05-08 15:29 21.12994 105.60250 4116 ft 239 kts 347°
2026-05-08 15:29 21.14585 105.59745 4000 ft 238 kts 347°
2026-05-08 15:29 21.16180 105.59240 4006 ft 239 kts 347°
2026-05-08 15:29 21.17807 105.58996 3999 ft 234 kts
2026-05-08 15:30 21.19362 105.59389 3747 ft 228 kts 25°
2026-05-08 15:30 21.20844 105.60004 3450 ft 227 kts 24°
2026-05-08 15:30 21.22307 105.60597 3169 ft 226 kts 24°
2026-05-08 15:30 21.23767 105.61212 2945 ft 219 kts 30°
2026-05-08 15:31 21.24961 105.62125 2897 ft 206 kts 47°
2026-05-08 15:31 21.25786 105.63325 2796 ft 201 kts 63°
2026-05-08 15:31 21.26227 105.64736 2650 ft 199 kts 81°
2026-05-08 15:31 21.26243 105.66169 2441 ft 187 kts 96°
2026-05-08 15:32 21.25916 105.67488 2217 ft 178 kts 105°
2026-05-08 15:32 21.25564 105.68714 1996 ft 166 kts 105°
2026-05-08 15:32 21.25232 105.69869 1788 ft 160 kts 105°
2026-05-08 15:32 21.24909 105.70993 1598 ft 157 kts 105°
2026-05-08 15:33 21.24588 105.72108 1386 ft 155 kts 105°
2026-05-08 15:33 21.24284 105.73162 1208 ft 146 kts 105°
2026-05-08 15:33 21.23985 105.74200 1015 ft 145 kts 106°
2026-05-08 15:33 21.23688 105.75227 840 ft 143 kts 106°
2026-05-08 15:34 21.23402 105.76258 639 ft 143 kts 106°
2026-05-08 15:34 21.23101 105.77259 470 ft 143 kts 107°
2026-05-08 15:34 21.22807 105.78277 284 ft 143 kts 105°
2026-05-08 15:34 21.22519 105.79293 92 ft 141 kts 107°
2026-05-08 15:35 21.22250 105.80206 50 ft 101 kts 108°
2026-05-08 15:35 21.22095 105.80738 52 ft 50 kts 108°
2026-05-08 15:35 21.22029 105.80965 51 ft 22 kts 111°
2026-05-08 15:35 21.21957 105.80990 51 ft 9 kts 206°
2026-05-08 15:36 21.21927 105.80946 50 ft 7 kts 251°
2026-05-08 15:36 21.21912 105.80878 50 ft 15 kts 257°
2026-05-08 15:36 21.21889 105.80771 50 ft 14 kts 254°
2026-05-08 15:36 21.21816 105.80719 47 ft 13 kts 198°
2026-05-08 15:37 21.21734 105.80685 49 ft 12 kts 217°
2026-05-08 15:37 21.21723 105.80611 49 ft 9 kts 288°
2026-05-08 15:37 21.21741 105.80551 49 ft 8 kts 288°
2026-05-08 15:37 21.21756 105.80499 49 ft 9 kts 287°
2026-05-08 15:38 21.21783 105.80406 49 ft 14 kts 288°
2026-05-08 15:38 21.21812 105.80307 47 ft 13 kts 287°
2026-05-08 15:38 21.21838 105.80216 47 ft 12 kts 287°
2026-05-08 15:38 21.21863 105.80131 49 ft 11 kts 287°
2026-05-08 15:39 21.21885 105.80056 49 ft 10 kts 287°
2026-05-08 15:39 21.21904 105.79988 49 ft 9 kts 287°
2026-05-08 15:39 21.21921 105.79927 49 ft 8 kts 287°
2026-05-08 15:39 21.21938 105.79872 46 ft 8 kts 288°
2026-05-08 15:40 21.21956 105.79809 48 ft 11 kts 287°
2026-05-08 15:40 21.21976 105.79738 49 ft 9 kts 287°
2026-05-08 15:40 21.21994 105.79675 47 ft 8 kts 287°
2026-05-08 15:40 21.22009 105.79623 47 ft 7 kts 287°
2026-05-08 15:41 21.22015 105.79569 49 ft 7 kts 261°
2026-05-08 15:41 21.21989 105.79538 49 ft 5 kts 212°
2026-05-08 15:41 21.21964 105.79511 46 ft 5 kts 237°
2026-05-08 15:41 21.21959 105.79480 49 ft 4 kts 275°
2026-05-08 15:42 21.21966 105.79451 49 ft 6 kts 286°
2026-05-08 15:42 21.21978 105.79412 49 ft 6 kts 287°
2026-05-08 15:42 21.21991 105.79364 49 ft 6 kts 281°
2026-05-08 15:42 21.21988 105.79324 49 ft 5 kts 255°
2026-05-08 15:43 21.21968 105.79307 48 ft 3 kts 204°
2026-05-08 15:43 21.21952 105.79301 49 ft 2 kts 200°
2026-05-08 15:43 21.21944 105.79297 49 ft 1 kts 198°
2026-05-08 15:43 21.21926 105.79291 49 ft 4 kts 198°
2026-05-08 15:44 21.21906 105.79285 49 ft 2 kts 197°
2026-05-08 15:44 21.21903 105.79284 49 ft 0 kts 198°